Location: Dorchester
(45.9077°N, 64.5103°W)
Time: 07:51:53
(UTC+00:00)

Envisat - Visible Passes

Search period start: 04 December 2021 00:00
Search period end: 14 December 2021 00:00
Orbit: 764 x 766 km, 98.2° (Epoch: 03 December)

Date Brightness Start Highest point End Pass type
(mag) Time Alt. Az. Time Alt. Az. Time Alt. Az.
04 Dec 4.0 08:54:32 10° NNE 08:59:26 45° E 09:04:17 10° S visible
04 Dec 3.9 10:34:02 10° N 10:38:12 26° WNW 10:42:21 10° WSW visible
04 Dec 6.0 21:53:06 10° WSW 21:55:54 15° W 21:58:44 10° NW visible
05 Dec 5.3 08:18:25 10° NE 08:22:17 22° E 08:26:09 10° SE visible
05 Dec 3.1 09:56:40 10° N 10:01:36 52° WNW 10:06:30 10° SW visible
05 Dec 5.1 21:14:11 10° SSW 21:18:40 31° W 21:23:10 10° NNW visible
06 Dec 3.1 09:19:42 10° NNE 09:24:48 76° ESE 09:29:53 10° S visible
06 Dec 4.4 11:00:05 10° NNW 11:03:13 17° WNW 11:06:20 10° W visible
07 Dec 4.4 08:43:08 10° NNE 08:47:49 36° E 08:52:27 10° SSE visible
07 Dec 3.6 10:22:17 10° N 10:26:45 32° WNW 10:31:12 10° SW visible
07 Dec 5.8 21:40:42 10° SW 21:44:13 19° W 21:47:44 10° NW visible
08 Dec 5.6 08:07:17 10° NE 08:10:37 17° E 08:13:54 10° SE visible
08 Dec 2.9 09:45:03 10° N 09:50:05 65° WNW 09:55:06 10° SSW visible
08 Dec 4.7 21:02:19 10° SSW 21:07:02 39° W 21:11:47 10° NNW visible
09 Dec 3.4 09:08:10 10° NNE 09:13:14 61° E 09:18:14 10° S visible
09 Dec 4.2 10:48:09 10° NNW 10:51:47 20° WNW 10:55:26 10° WSW visible
09 Dec 6.3 22:08:48 10° W 22:09:52 11° W 22:10:57 10° WNW visible
10 Dec 4.8 08:31:47 10° NE 08:36:10 29° E 08:40:32 10° SSE visible
10 Dec 3.4 10:10:34 10° N 10:15:16 39° WNW 10:19:57 10° SW visible
10 Dec 5.6 21:28:31 10° SW 21:32:32 23° W 21:36:34 10° NW visible
11 Dec 5.9 07:56:24 10° ENE 07:58:54 14° E 08:01:24 10° ESE visible
11 Dec 2.8 09:33:26 10° NNE 09:38:33 81° WNW 09:43:37 10° SSW visible
11 Dec 4.6 11:14:34 10° NNW 11:16:45 13° NW 11:18:55 10° W visible
12 Dec 3.9 08:56:42 10° NNE 09:01:37 48° E 09:06:31 10° S visible
12 Dec 4.0 10:36:18 10° N 10:40:21 25° WNW 10:44:25 10° WSW visible
12 Dec 6.0 21:55:36 10° WSW 21:58:08 14° W 22:00:41 10° WNW visible
13 Dec 5.2 08:20:29 10° NE 08:24:30 23° E 08:28:30 10° SE visible
13 Dec 3.1 09:58:53 10° N 10:03:47 48° WNW 10:08:38 10° SW visible
13 Dec 5.2 21:16:30 10° SSW 21:20:53 29° W 21:25:17 10° NW visible
